Content
SEND FEEDBACK

Daily
Averages
Monthly
Summary
Philippines

QUEZON CITY, PHILIPPINES


Home > Asia > Philippines
Elevation: 151 feet     Latitude: 14 39N     Longitude: 121 03E

WEATHER
 
SELECT A DAY
Number of Records: 172,421;   Date Range: 7/1/96 - 7/23/14
 
SHARE

PRINT THIS DATA

[ ← Previous Day ]
WEATHER ALMANAC - DECEMBER 31, 2012
[ Next Day → ]
[ °C ]   °F
Weather ElementAverageHighLow
Temperature81.2 °F86 °F (2:00 pm)77 °F (6:00 am)
Dewpoint71.4 °F75.2 °F (1:00 am)68 °F (6:00 pm)
Humidity71.2 %89 % (2:00 am)48 % (2:00 pm)
Barometer29.85 in29.92 in (9:00 am)29.80 in (2:00 pm)
Wind Speed4.5 mph8.1 mph (6:00 pm)
Weather ElementAverage
Visibility6.1 mi
Wind DirectionE (85.5 °)

Weather ElementTotal
Precipitation---
Cooling Degree Days16.5 (Base 65)
Growing Degree Days31.5 (Base 50)
Averaged from 30 records on December 31, 2012
WEATHER CONDITIONS BREAKOUT
WIND DIRECTION BREAKOUT
WEATHER BY HOUR - DECEMBER 31, 2012
[ °C ]   °F
Local TimeTemperatureDewpointHumidityBarometerVisibilityWind DirectionWind SpeedGust SpeedPrecipitationEventsConditions
1:00 AM80.6 °F75.2 °F84 %29.83 in6.2 miNE (40°)5.8 mphMostly Cloudy
2:00 AM79.0 °F75.0 °F85 %29.83 in6.0 miNE (50°)4.5 mphHaze
2:00 AM78.8 °F75.2 °F89 %29.83 in6.2 miNE (50°)5.8 mphPartly Cloudy
3:00 AM78.8 °F75.2 °F89 %29.83 in6.2 miNNE (30°)4.6 mphScattered Clouds
4:00 AM78.8 °F73.4 °F83 %29.83 in6.2 miENE (70°)3.5 mphPartly Cloudy
5:00 AM78.0 °F72.0 °F77 %29.84 in6.0 miEast (90°)2.2 mphHaze
5:00 AM78.8 °F71.6 °F78 %29.83 in6.2 miEast (90°)3.5 mphPartly Cloudy
6:00 AM77.0 °F73.4 °F89 %29.86 in6.2 miCalmPartly Cloudy
7:00 AM78.8 °F73.4 °F83 %29.86 in6.2 miNW (310°)3.5 mphMostly Cloudy
8:00 AM80.0 °F74.0 °F78 %29.90 in6.0 miNNE (20°)6.7 mphHaze
8:00 AM78.8 °F75.2 °F89 %29.89 in6.2 miNNE (20°)6.9 mphMostly Cloudy
9:00 AM80.6 °F75.2 °F84 %29.92 in6.2 miNNE (30°)6.9 mphMostly Cloudy
10:00 AM82.4 °F71.6 °F70 %29.89 in6.2 miNE (40°)3.5 mphMostly Cloudy
11:00 AM84.0 °F72.0 °F59 %29.89 in6.0 miENE (60°)4.5 mphHaze
11:00 AM84.2 °F71.6 °F66 %29.89 in6.2 miENE (60°)4.6 mphOvercast
12:00 PM84.2 °F71.6 °F66 %29.83 in6.2 miNE (40°)3.5 mphMostly Cloudy
2:00 PM86.0 °F69.0 °F48 %29.82 in6.0 miESE (110°)6.7 mphHaze
2:00 PM86.0 °F69.8 °F58 %29.80 in6.2 miESE (110°)6.9 mphMostly Cloudy
3:00 PM86.0 °F71.6 °F62 %29.80 in6.2 miNE (50°)5.8 mphMostly Cloudy
4:00 PM84.2 °F69.8 °F62 %29.80 in6.2 miVariable2.3 mphMostly Cloudy
5:00 PM84.0 °F69.0 °F53 %29.82 in6.0 miWNW (290°)6.7 mphHaze
5:00 PM84.2 °F69.8 °F62 %29.80 in6.2 miWNW (290°)6.9 mphMostly Cloudy
6:00 PM82.4 °F68.0 °F62 %29.83 in6.2 miEast (90°)8.1 mphMostly Cloudy
7:00 PM80.6 °F68.0 °F65 %29.86 in6.2 miESE (110°)6.9 mphMostly Cloudy
8:00 PM81.0 °F68.0 °F56 %29.87 in6.0 miESE (120°)4.5 mphHaze
8:00 PM80.6 °F68.0 °F65 %29.86 in6.2 miESE (120°)5.8 mphScattered Clouds
9:00 PM80.6 °F68.0 °F65 %29.86 in6.2 miSouth (190°)5.8 mphScattered Clouds
10:00 PM78.8 °F68.0 °F69 %29.86 in6.2 miCalmScattered Clouds
11:00 PM79.0 °F69.0 °F65 %29.88 in6.0 miCalmHaze
11:00 PM78.8 °F69.8 °F74 %29.86 in6.2 miCalmScattered Clouds
Hourly data recorded from RPLL, located miles away from Quezon City, Philippines







STORIES FROM OUR PARTNERS